Погода в Крутогоровском

Россия / Камчатский край     55°01′36″N   155°35′28″E
темп.,
°C
ветер,
м/с
пор.,
м/с
влажн.,
%
обл.,
%
осадки,
мм/ч
давл.,
гПа
погр.,
м
7 мая, пт
пт700:00+1ююв4594100 0.0 100998
03:00+1ююв4896100 0.1 1009203
06:000ююв4699100 0.5 1009176
09:000юв3499100 1.3 1009185
12:00+1юв1299100 2.1 101065
15:00+2юв00100100 0.2 101032
18:00+2св1199100 0.2 101044
21:00+1ююв1199100 0.0 101113
8 мая, сб
сб800:00+1ююв4799100 0.3 1011225
03:00+1ююв4799100 0.8 1012203
06:00+1ю4696100 0.8 1012121
09:00+1ю4595100 0.1 1012131
12:00+2ююз4490100 0.2 1013151
15:00+2юз228775 0.0 1012193
18:00+2ссз118814 0.0 1012135
21:00+1с33875 0.0 101239
9 мая, вс
вс900:00+2ссв45939 0.0 101143
03:00+1ссв58935 0.0 1011114
06:00+1ссв610925 0.0 1011171
09:00+2ссв811772 0.0 1011287
12:00+4ссв912541 0.0 1011349
15:00+3с1013632 0.0 1011463
18:00+4с1013590 0.0 1011500
21:00+3с1015700 0.0 1012307
10 мая, пн
пн1000:00+1с1015785 0.0 1012308
03:00+1с916825 0.0 1012313
06:00+1ссв913795 0.0 1012265
09:00+2ссв68705 0.0 1012165
12:00+4с55625 0.0 1012291
15:00+2ссз78795 0.0 1012154
18:00+2ссз9128218 0.0 1012147
21:00+2с9148534 0.0 1011167
11 мая, вт
вт1100:00+1с711875 0.0 1012136
03:00+1с68895 0.0 1012103
06:00+1с56885 0.0 101288
09:00+2с56846 0.0 1012133
12:00+2ссз788460 0.0 1012163
15:00+1ссз91189100 0.0 1012155
18:00+1ссз101486100 0.0 1011228
21:00+1с101585100 0.0 1012276